Date,TemperatureHighF,TemperatureAvgF,TemperatureLowF,DewpointHighF,DewpointAvgF,DewpointLowF,HumidityHigh,HumidityAvg,HumidityLow,PressureMaxIn,PressureMinIn,WindSpeedMaxMPH,WindSpeedAvgMPH,GustSpeedMaxMPH,PrecipitationSumIn
2013-3-1,31,25,15,25,22,11,95,86,72,30.31,30.14,14,6,14,0.01
2013-3-2,22,12,3,16,9,0,93,87,76,30.34,30.24,16,5,16,0.00
2013-3-3,37,22,10,24,16,7,94,79,52,30.24,30.02,21,1,21,0.00
2013-3-4,33,28,24,29,25,20,94,88,76,30.05,29.86,21,4,21,0.13
2013-3-5,30,28,24,28,25,21,95,92,87,30.23,29.93,39,14,39,0.11
2013-3-6,27,21,9,22,18,6,93,87,81,30.41,30.23,42,12,42,0.00
2013-3-7,34,17,2,26,13,-1,94,86,69,30.44,30.36,11,1,11,0.03
2013-3-8,42,32,22,34,28,19,93,86,72,30.39,30.14,22,4,22,0.02
2013-3-9,40,36,35,39,35,33,98,96,91,30.13,29.68,18,6,18,1.22
2013-3-10,40,36,34,39,35,33,99,98,97,29.74,29.58,29,6,29,0.61
2013-3-11,34,30,26,33,28,22,98,92,83,29.92,29.64,41,15,41,0.00
2013-3-12,32,27,23,30,24,19,94,87,78,30.19,29.92,40,15,40,0.01
2013-3-13,30,24,17,23,19,14,88,82,62,30.44,30.19,28,10,28,0.00
2013-3-14,50,34,24,38,29,21,93,83,60,30.36,30.06,17,4,17,0.00
2013-3-15,47,37,31,42,34,29,95,90,78,30.06,29.73,17,2,17,0.00
2013-3-16,34,31,27,33,28,23,97,89,80,30.20,29.77,48,14,48,0.00
2013-3-17,37,30,23,29,24,18,89,79,65,30.20,29.89,31,5,31,0.00
2013-3-18,33,27,18,32,24,12,97,89,76,29.95,29.68,35,13,35,0.10
2013-3-19,30,21,14,23,15,8,88,77,67,30.24,29.93,27,15,30,0.00
2013-3-20,23,18,12,15,11,6,81,75,67,30.29,30.16,33,18,33,0.00
2013-3-21,30,20,8,20,13,5,88,75,58,30.17,30.04,12,3,12,0.00
2013-3-22,36,27,17,27,20,14,89,77,58,30.11,30.03,18,2,18,0.00
2013-3-23,41,33,26,29,26,23,95,78,53,30.13,30.01,18,3,18,0.00
2013-3-24,31,30,28,30,28,26,97,96,89,30.05,29.83,27,8,27,0.01
2013-3-25,35,29,26,28,26,22,97,87,70,30.22,29.92,30,14,30,0.00
2013-3-26,39,31,23,32,26,21,93,84,61,30.33,30.21,20,8,20,0.01
2013-3-27,44,36,29,32,28,25,90,75,57,30.37,30.28,9,2,9,0.00
2013-3-28,52,40,29,40,32,26,89,76,57,30.35,30.24,9,1,9,0.00
2013-3-29,58,44,32,42,36,29,89,73,47,30.30,30.15,12,2,12,0.00
2013-3-30,50,44,36,48,41,32,97,90,77,30.15,29.85,26,7,26,0.08
2013-3-31,48,38,32,43,34,26,98,86,66,30.04,29.84,30,12,30,0.02